User: anonymous   Login
Location: Unspecified
(0.0000°N, 0.0000°E)
Time: 18:17:09
(UTC+00:00)
Language:

CARTOSAT-1 - Orbit

View from above orbital plane
View from above orbital plane
View from above satellite
View from above satellite

Ground track
Ground track

The orbit data is extracted from the following two-line orbital elements,

1 28649U 05017A   19052.36193169  .00000038  00000-0  10935-4 0  9990
2 28649  97.8683 124.8829 0001074 136.8611 223.2688 14.83615810747033
Epoch (UTC): 21 February 2019 08:41:10
Eccentricity: 0.0001074
inclination: 97.8683°
perigee height: 617 km
apogee height: 618 km
right ascension of ascending node: 124.8829°
argument of perigee: 136.8611°
revolutions per day: 14.83615810
mean anomaly at epoch: 223.2688°
orbit number at epoch: 74703

The dashed part of the orbit path shows where the satellite is in the earth's shadow,  

DLR